TimeEDT,TemperatureF,Dew PointF,Humidity,Sea Level PressureIn,VisibilityMPH,Wind Direction,Wind SpeedMPH,Gust SpeedMPH,PrecipitationIn,Events,Conditions,WindDirDegrees,DateUTC
12:45 AM,64.4,62.6,94,30.21,1.8,Calm,Calm,-,N/A,,Clear,0,2013-08-21 04:45:00
12:53 AM,64.0,62.1,93,30.19,2.0,Calm,Calm,-,N/A,,Clear,0,2013-08-21 04:53:00
1:00 AM,64.4,62.6,94,30.21,1.5,Calm,Calm,-,N/A,,Partly Cloudy,0,2013-08-21 05:00:00
1:09 AM,64.4,62.6,94,30.21,1.8,Calm,Calm,-,N/A,,Mostly Cloudy,0,2013-08-21 05:09:00
1:21 AM,64.4,62.6,94,30.21,0.2,Calm,Calm,-,N/A,Fog,Fog,0,2013-08-21 05:21:00
1:39 AM,62.6,62.6,100,30.20,0.5,Calm,Calm,-,N/A,Fog,Fog,0,2013-08-21 05:39:00
1:53 AM,63.0,62.1,97,30.19,0.5,Calm,Calm,-,N/A,Fog,Fog,0,2013-08-21 05:53:00
2:24 AM,62.6,62.6,100,30.20,0.2,Calm,Calm,-,N/A,Fog,Fog,0,2013-08-21 06:24:00
2:53 AM,63.0,63.0,100,30.19,0.2,Calm,Calm,-,N/A,Fog,Fog,0,2013-08-21 06:53:00
3:53 AM,63.0,62.1,97,30.17,0.2,Calm,Calm,-,N/A,Fog,Fog,0,2013-08-21 07:53:00
4:53 AM,63.0,62.1,97,30.17,0.2,Calm,Calm,-,N/A,Fog,Fog,0,2013-08-21 08:53:00
5:53 AM,62.1,61.0,96,30.17,0.2,Calm,Calm,-,0.01,Fog,Fog,0,2013-08-21 09:53:00
6:53 AM,62.1,61.0,96,30.19,0.2,Calm,Calm,-,N/A,Fog,Fog,0,2013-08-21 10:53:00
7:44 AM,62.6,62.6,100,30.22,0.2,Calm,Calm,-,N/A,Fog,Fog,0,2013-08-21 11:44:00
7:53 AM,63.0,62.1,97,30.20,0.2,Calm,Calm,-,N/A,Fog,Fog,0,2013-08-21 11:53:00
8:12 AM,64.4,62.6,94,30.22,0.5,Calm,Calm,-,N/A,Fog,Fog,0,2013-08-21 12:12:00
8:53 AM,64.9,64.0,97,30.22,0.8,Calm,Calm,-,N/A,,Overcast,0,2013-08-21 12:53:00
9:18 AM,66.2,64.4,94,30.23,1.5,Calm,Calm,-,N/A,Fog,Overcast,0,2013-08-21 13:18:00
9:32 AM,69.8,64.4,83,30.23,5.0,Calm,Calm,-,N/A,Fog,Overcast,0,2013-08-21 13:32:00
9:53 AM,72.0,66.0,81,30.21,10.0,Calm,Calm,-,N/A,,Scattered Clouds,0,2013-08-21 13:53:00
10:53 AM,75.9,68.0,76,30.22,10.0,Calm,Calm,-,N/A,,Partly Cloudy,0,2013-08-21 14:53:00
11:53 AM,80.1,70.0,71,30.20,10.0,Calm,Calm,-,N/A,,Clear,0,2013-08-21 15:53:00
12:53 PM,81.0,68.0,65,30.19,10.0,Calm,Calm,-,N/A,,Partly Cloudy,0,2013-08-21 16:53:00
1:53 PM,84.0,66.0,55,30.17,10.0,Calm,Calm,-,N/A,,Clear,0,2013-08-21 17:53:00
2:53 PM,82.9,66.0,56,30.15,10.0,Calm,Calm,-,N/A,,Partly Cloudy,0,2013-08-21 18:53:00
3:18 PM,82.4,66.2,58,30.15,10.0,SW,3.5,-,N/A,,Clear,220,2013-08-21 19:18:00
3:31 PM,82.4,64.4,54,30.15,-9999.0,Calm,Calm,-,N/A,,Unknown,0,2013-08-21 19:31:00
3:53 PM,82.0,66.9,60,30.13,-9999.0,SSW,4.6,-,N/A,,Mostly Cloudy,200,2013-08-21 19:53:00
3:59 PM,80.6,68.0,65,30.15,10.0,South,10.4,-,N/A,,Mostly Cloudy,190,2013-08-21 19:59:00
4:28 PM,78.8,69.8,74,30.16,10.0,Calm,Calm,-,N/A,Thunderstorm,Thunderstorm,0,2013-08-21 20:28:00
4:43 PM,80.6,71.6,74,30.16,10.0,Calm,Calm,-,N/A,Thunderstorm,Mostly Cloudy,0,2013-08-21 20:43:00
4:53 PM,79.0,71.1,77,30.14,10.0,SSW,4.6,-,N/A,Thunderstorm,Mostly Cloudy,210,2013-08-21 20:53:00
5:29 PM,68.0,64.4,88,30.17,1.0,NW,8.1,-,0.14,Rain-Thunderstorm,Heavy Thunderstorms and Rain,320,2013-08-21 21:29:00
5:40 PM,68.0,64.4,88,30.15,9.0,West,3.5,-,0.14,Rain-Thunderstorm,Light Thunderstorms and Rain,260,2013-08-21 21:40:00
5:53 PM,69.1,64.9,87,30.15,10.0,Calm,Calm,-,0.14,Thunderstorm,Thunderstorm,0,2013-08-21 21:53:00
6:27 PM,69.8,66.2,88,30.15,8.0,Calm,Calm,-,N/A,,Scattered Clouds,0,2013-08-21 22:27:00
6:53 PM,69.1,66.0,90,30.13,8.0,Calm,Calm,-,N/A,,Clear,0,2013-08-21 22:53:00
7:53 PM,68.0,66.0,93,30.13,9.0,SSW,4.6,-,N/A,,Scattered Clouds,210,2013-08-21 23:53:00
8:53 PM,68.0,64.9,90,30.12,9.0,Calm,Calm,-,0.01,,Partly Cloudy,0,2013-08-22 00:53:00
9:53 PM,66.9,66.0,97,30.16,5.0,Calm,Calm,-,0.00,Rain,Light Rain,0,2013-08-22 01:53:00
10:53 PM,66.9,64.9,93,30.15,7.0,SE,4.6,-,0.00,,Mostly Cloudy,140,2013-08-22 02:53:00
11:53 PM,66.0,64.9,96,30.15,6.0,Calm,Calm,-,0.01,,Partly Cloudy,0,2013-08-22 03:53:00